When you browse on this site, cookies collect data to enhance your experience and personalize the content and advertising you see.
Visit our Privacy Policy to learn more. By continuing to use the site, you agree to this use of cookies and data.
  • In Czech Republic
  • List of Countries
  • For 7 days
  • Water Temperature
  • Satellite Maps
  • Weather Map
  • Weather Widgets
  • user-avatar
    Login

    Hourly Weather Kaprun

    Today, 16 December, Sunday

    Time Temperature Precipitation Wind Pressure Humidity
    00:00 -15°C° 0 mm 1 mps 590 mmHg 65%
    01:00 -16°C° 0 mm 2 mps 590 mmHg 58%
    02:00 -14°C° 0 mm 1 mps 590 mmHg 57%
    03:00 -13°C° 0 mm 1 mps 590 mmHg 55%
    04:00 -13°C° 0 mm 1 mps 590 mmHg 54%
    05:00 -12°C° 0 mm 1 mps 590 mmHg 56%
    06:00 -11°C° 0 mm 1 mps 590 mmHg 57%
    07:00 -10°C° 0 mm 1 mps 590 mmHg 57%
    08:00 -9°C° 0 mm 1 mps 591 mmHg 58%
    09:00 -8°C° 0 mm 1 mps 591 mmHg 60%
    10:00 -7°C° 0 mm 1 mps 592 mmHg 61%
    11:00 -6°C° 0.1 mm 1 mps 592 mmHg 63%
    12:00 -4°C° 0.1 mm 1 mps 592 mmHg 65%
    13:00 -4°C° 0.1 mm 1 mps 592 mmHg 67%
    14:00 -4°C° 0 mm 1 mps 592 mmHg 71%
    15:00 -6°C° 0 mm 1 mps 592 mmHg 74%
    16:00 -6°C° 0 mm 0 mps 591 mmHg 78%
    17:00 -7°C° 0.1 mm 0 mps 592 mmHg 80%
    18:00 -7°C° 0.1 mm 0 mps 592 mmHg 83%
    19:00 -8°C° 0.1 mm 1 mps 592 mmHg 85%
    20:00 -8°C° 0.1 mm 1 mps 592 mmHg 86%
    21:00 -8°C° 0.1 mm 1 mps 592 mmHg 87%
    22:00 -8°C° 0.1 mm 1 mps 592 mmHg 89%
    23:00 -8°C° 0 mm 1 mps 592 mmHg 89%

    Tomorrow, 17 December, Monday

    Time Temperature Precipitation Wind Pressure Humidity
    00:00 -8°C° 0 mm 1 mps 592 mmHg 88%
    01:00 -8°C° 0 mm 1 mps 592 mmHg 88%
    02:00 -8°C° 0 mm 1 mps 592 mmHg 88%
    03:00 -8°C° 0 mm 1 mps 591 mmHg 88%
    04:00 -8°C° 0 mm 1 mps 591 mmHg 88%
    05:00 -8°C° 0 mm 1 mps 592 mmHg 88%
    06:00 -9°C° 0 mm 1 mps 592 mmHg 88%
    07:00 -9°C° 0 mm 1 mps 592 mmHg 89%
    08:00 -8°C° 0 mm 1 mps 593 mmHg 88%
    09:00 -7°C° 0 mm 1 mps 593 mmHg 87%
    10:00 -8°C° 0 mm 2 mps 594 mmHg 87%
    11:00 -7°C° 0 mm 2 mps 595 mmHg 85%
    12:00 -6°C° 0 mm 2 mps 595 mmHg 83%
    13:00 -6°C° 0 mm 2 mps 595 mmHg 81%
    14:00 -7°C° 0 mm 2 mps 595 mmHg 84%
    15:00 -7°C° 0 mm 2 mps 595 mmHg 87%
    16:00 -8°C° 0 mm 2 mps 595 mmHg 90%
    17:00 -8°C° 0 mm 2 mps 596 mmHg 90%
    18:00 -9°C° 0 mm 2 mps 597 mmHg 90%
    19:00 -9°C° 0 mm 2 mps 597 mmHg 89%
    20:00 -9°C° 0.1 mm 2 mps 597 mmHg 89%
    21:00 -9°C° 0.1 mm 2 mps 598 mmHg 89%
    22:00 -9°C° 0.1 mm 2 mps 598 mmHg 89%
    23:00 -9°C° 0 mm 2 mps 598 mmHg 89%

    Day after tomorrow, 18 December, Tuesday

    Time Temperature Precipitation Wind Pressure Humidity
    00:00 -10°C° 0 mm 2 mps 598 mmHg 90%
    01:00 -10°C° 0 mm 2 mps 598 mmHg 90%
    02:00 -10°C° 0 mm 2 mps 598 mmHg 90%
    03:00 -12°C° 0 mm 2 mps 598 mmHg 90%
    04:00 -12°C° 0 mm 2 mps 598 mmHg 89%
    05:00 -10°C° 0 mm 1 mps 598 mmHg 88%
    06:00 -11°C° 0 mm 1 mps 598 mmHg 86%
    07:00 -11°C° 0 mm 1 mps 598 mmHg 84%
    08:00 -9°C° 0 mm 1 mps 598 mmHg 81%
    09:00 -8°C° 0 mm 1 mps 599 mmHg 77%
    10:00 -7°C° 0 mm 1 mps 599 mmHg 74%
    11:00 -4°C° 0 mm 1 mps 599 mmHg 73%
    12:00 -3°C° 0 mm 1 mps 599 mmHg 71%
    13:00 -2°C° 0 mm 1 mps 599 mmHg 70%
    14:00 -3°C° 0 mm 1 mps 599 mmHg 73%
    15:00 -4°C° 0 mm 1 mps 598 mmHg 75%
    16:00 -7°C° 0 mm 1 mps 597 mmHg 77%
    17:00 -8°C° 0 mm 2 mps 597 mmHg 74%
    18:00 -9°C° 0 mm 2 mps 596 mmHg 70%
    19:00 -10°C° 0 mm 2 mps 596 mmHg 67%
    20:00 -10°C° 0 mm 2 mps 596 mmHg 64%
    21:00 -10°C° 0 mm 2 mps 595 mmHg 61%
    22:00 -10°C° 0 mm 2 mps 595 mmHg 59%
    23:00 -10°C° 0 mm 2 mps 595 mmHg 57%

    19 December, Wednesday

    Time Temperature Precipitation Wind Pressure Humidity
    00:00 -10°C° 0 mm 2 mps 595 mmHg 56%
    01:00 -10°C° 0 mm 2 mps 595 mmHg 55%
    02:00 -9°C° 0 mm 2 mps 594 mmHg 54%
    03:00 -9°C° 0 mm 2 mps 594 mmHg 53%
    04:00 -9°C° 0 mm 2 mps 594 mmHg 52%
    05:00 -9°C° 0 mm 2 mps 594 mmHg 51%
    06:00 -7°C° 0 mm 1 mps 594 mmHg 50%
    07:00 -7°C° 0 mm 1 mps 594 mmHg 50%
    08:00 -6°C° 0 mm 1 mps 595 mmHg 52%
    09:00 -4°C° 0 mm 1 mps 595 mmHg 55%
    10:00 -3°C° 0 mm 1 mps 596 mmHg 57%
    11:00 -3°C° 0 mm 1 mps 596 mmHg 58%
    12:00 -3°C° 0 mm 0 mps 596 mmHg 59%
    13:00 -2°C° 0 mm 0 mps 596 mmHg 60%
    14:00 -2°C° 0 mm 1 mps 595 mmHg 63%
    15:00 -4°C° 0 mm 1 mps 594 mmHg 66%
    16:00 -6°C° 0 mm 1 mps 593 mmHg 69%
    17:00 -7°C° 0 mm 1 mps 593 mmHg 70%
    18:00 -8°C° 0 mm 1 mps 593 mmHg 71%
    19:00 -8°C° 0 mm 1 mps 593 mmHg 71%
    20:00 -9°C° 0 mm 1 mps 593 mmHg 72%
    21:00 -9°C° 0 mm 1 mps 593 mmHg 72%
    22:00 -9°C° 0 mm 1 mps 593 mmHg 73%
    23:00 -9°C° 0.2 mm 1 mps 593 mmHg 76%

    20 December, Thursday

    Time Temperature Precipitation Wind Pressure Humidity
    00:00 -8°C° 0.2 mm 1 mps 593 mmHg 80%
    01:00 -8°C° 0.2 mm 1 mps 593 mmHg 84%
    02:00 -8°C° 0.5 mm 1 mps 593 mmHg 87%
    03:00 -7°C° 0.5 mm 1 mps 593 mmHg 91%
    04:00 -7°C° 0.5 mm 1 mps 593 mmHg 94%
    05:00 -7°C° 0.8 mm 1 mps 593 mmHg 95%
    06:00 -7°C° 0.8 mm 1 mps 593 mmHg 95%
    07:00 -7°C° 0.8 mm 1 mps 593 mmHg 96%
    08:00 -6°C° 1.2 mm 1 mps 594 mmHg 96%
    09:00 -6°C° 1.2 mm 1 mps 594 mmHg 96%
    10:00 -7°C° 1.2 mm 2 mps 594 mmHg 96%
    11:00 -6°C° 1 mm 2 mps 594 mmHg 95%
    12:00 -6°C° 1 mm 2 mps 594 mmHg 95%
    13:00 -6°C° 1 mm 2 mps 594 mmHg 95%
    14:00 -6°C° 0.4 mm 2 mps 595 mmHg 95%
    15:00 -7°C° 0.4 mm 2 mps 595 mmHg 95%
    16:00 -7°C° 0.4 mm 2 mps 595 mmHg 95%
    17:00 -8°C° 0.1 mm 2 mps 595 mmHg 94%
    18:00 -8°C° 0.1 mm 2 mps 595 mmHg 94%
    19:00 -9°C° 0.1 mm 2 mps 596 mmHg 94%
    20:00 -10°C° 0 mm 2 mps 595 mmHg 93%
    21:00 -12°C° 0 mm 2 mps 595 mmHg 92%
    22:00 -13°C° 0 mm 2 mps 595 mmHg 91%
    23:00 -13°C° 0 mm 2 mps 595 mmHg 89%

    21 December, Friday

    Time Temperature Precipitation Wind Pressure Humidity
    00:00 -11°C° 0 mm 1 mps 595 mmHg 86%
    01:00 -12°C° 0 mm 1 mps 595 mmHg 84%
    02:00 -12°C° 0 mm 1 mps 595 mmHg 82%
    03:00 -11°C° 0 mm 1 mps 595 mmHg 79%
    04:00 -11°C° 0 mm 1 mps 595 mmHg 76%
    05:00 -11°C° 0 mm 1 mps 595 mmHg 74%
    06:00 -13°C° 0 mm 2 mps 595 mmHg 71%
    07:00 -13°C° 0 mm 2 mps 595 mmHg 69%
    08:00 -10°C° 0 mm 2 mps 595 mmHg 69%
    09:00 -9°C° 0 mm 2 mps 596 mmHg 69%
    10:00 -8°C° 0 mm 2 mps 596 mmHg 69%
    11:00 -7°C° 0 mm 2 mps 596 mmHg 70%
    12:00 -5°C° 0 mm 2 mps 596 mmHg 72%
    13:00 -5°C° 0 mm 3 mps 596 mmHg 73%
    14:00 -6°C° 0 mm 3 mps 595 mmHg 75%
    15:00 -6°C° 0 mm 2 mps 595 mmHg 76%
    16:00 -6°C° 0 mm 2 mps 594 mmHg 78%
    17:00 -6°C° 0.1 mm 2 mps 594 mmHg 78%
    18:00 -6°C° 0.1 mm 2 mps 594 mmHg 79%
    19:00 -6°C° 0.1 mm 2 mps 595 mmHg 79%
    20:00 -6°C° 0.1 mm 2 mps 595 mmHg 78%
    21:00 -5°C° 0.1 mm 2 mps 595 mmHg 76%
    22:00 -5°C° 0.1 mm 2 mps 595 mmHg 75%
    23:00 -3°C° 0.1 mm 1 mps 595 mmHg 77%
    Show more